Location: Montamat
(43.4852°N, 0.8444°E)
Time: 07:46:12
(UTC+00:00)

COSMOS 2406 - Pass Details

Date: 14 May 2026
Orbit: 846 x 859 km, 71.0° (Epoch: 5 June)

Event Time Altitude Azimuth Distance (km) Brightness Sun altitude
Rises 19:48:40 0° 172° (S) 3,417 6.0 -6.3°
Reaches altitude 10° 19:51:24 10° 161° (SSE) 2,485 5.2 -6.8°
Maximum altitude 19:56:14 29° 103° (ESE) 1,525 4.1 -7.5°
Drops below altitude 10° 20:01:05 10° 45° (NE) 2,498 5.6 -8.2°
Sets 20:03:49 0° 35° (NE) 3,438 6.4 -8.6°
